Hourly Data Report for September 19, 2017

All times are specified in Local Standard Time (LST). Add 1 hour to adjust for Daylight Saving Time where and when it is observed.

PORT ALBERNI (AUT)
BRITISH COLUMBIA

49°18'59.700" N
124°55'36.600" W
76.20 m
1036B06
71475
WQC

Related Data

No related data is available for this station

Download Data

Hourly Data (September 2017)
Hourly Data Report for September 19, 2017
Temp Definition
°C
Dew Point Temp Definition
°C
Rel Hum Definition
%
Wind Dir Definition
10's deg

Wind Spd Definition
km/h
Visibility Definition
km
Stn Press Definition
kPa
Hmdx Definition


Wind Chill Definition


Weather Definition


TIME
00:00 9.3 8.7 96 34 2   99.58     LegendNANA
01:00 8.9 8.4 97 6 3   99.60     LegendNANA
02:00 8.3 8.0 98 24 11   99.61     LegendNANA
03:00 8.5 8.2 98 7 9   99.63     LegendNANA
04:00 7.9 7.6 98 31 3   99.66     LegendNANA
05:00 7.6 7.4 99 29 3   99.70     LegendNANA
06:00 7.6 7.4 99 32 3   99.75     LegendNANA
07:00 7.7 7.5 99 36 3   99.80     LegendNANA
08:00 9.3 8.0 92 35 2   99.82     LegendNANA
09:00 10.6 8.6 87 32 3   99.84     LegendNANA
10:00 11.8 8.5 80 35 3   99.86     LegendNANA
11:00 13.2 7.2 67 4 6   99.85     LegendNANA
12:00 14.5 8.2 66 11 5   99.83     LegendNANA
13:00 13.4 7.8 69 28 2   99.80     LegendNANA
14:00 14.0 6.6 61 25 5   99.78     LegendNANA
15:00 12.9 9.0 77 24 5   99.78     LegendNANA
16:00 11.3 9.6 89 35 4   99.81     LegendNANA
17:00 11.3 9.7 90 27 4   99.79     LegendNANA
18:00 11.0 9.7 92 28 6   99.78     LegendNANA
19:00 8.8 8.0 95 18 2   99.74     LegendNANA
20:00 8.4 8.0 97 31 3   99.73     LegendNANA
21:00 8.4 8.1 98 32 4   99.71     LegendNANA
22:00 6.8 6.4 97 32 2   99.69     LegendNANA
23:00 6.9 6.5 97 30 4   99.69     LegendNANA

Notes on Data Quality.

Legend

  • E = Estimated
  • M = Missing
  • NA = Not Available
  • ‡ = Partner data that is not subject to review by the National Climate Archives
Date modified: